Location: Newark
(25.5428°S, 54.5819°W)
Time: 00:34:28
(UTC+00:00)

Envisat - Pass Details

Date: 24 July 2019
Orbit: 764 x 766 km, 98.1° (Epoch: 21 August)

Event Time Altitude Azimuth Distance (km) Brightness Sun altitude
Rises 09:20:09 0° 40° (NE) 3,217 7.2 -13.8°
Reaches altitude 10° 09:22:44 10° 51° (NE) 2,299 6.6 -13.2°
Maximum altitude 09:26:57 27° 108° (ESE) 1,447 5.1 -12.3°
Drops below altitude 10° 09:31:12 10° 164° (SSE) 2,322 5.5 -11.4°
Sets 09:33:49 0° 176° (S) 3,255 6.1 -10.8°
